Cairo, IL

12:59 AM CDT on April 25, 2018 (GMT -0500)
Cairo Regional

Weather History for KCIR - May, 2013

Change the Weather History Date:

Friday, May 3, 2013

  Actual Average Record
Temperature  
Mean Temperature 56 °F -  
Max Temperature 68 °F 71 °F 89 °F (1955)
Min Temperature 44 °F 53 °F 39 °F (1988)
Degree Days  
Heating Degree Days 9    
Growing Degree Days 6 (Base 50)    
Moisture  
Dew Point 53 °F    
Average Humidity 86    
Maximum Humidity 91    
Minimum Humidity 72    
Precipitation  
Precipitation 1.38 in - - ()
Sea Level Pressure  
Sea Level Pressure 29.90 in    
Wind  
Wind Speed 7 mph (SW)    
Max Wind Speed 13 mph    
Max Gust Speed 18 mph    
Visibility 6 miles    
Events Rain    
Averages and records for this station are not official NWS values.
T = Trace of Precipitation, MM = Missing Value Source: NWS Daily Summary

Daily Weather History Graph

Daily Weather History Graph

Search for Another Location

Airport or City:

Astronomy

May. 03, 2013 Rise Set
Actual Time 5:59 AM CDT 7:48 PM CDT
Civil Twilight 5:31 AM CDT 8:16 PM CDT
Nautical Twilight 4:57 AM CDT 8:50 PM CDT
Astronomical Twilight 4:21 AM CDT 9:26 PM CDT
Moon 2:15 AM CDT (5/3) 1:50 PM CDT (5/3)
Length of Visible Light 14h 44m
Length of Day
13h 48m
Last Quarter, 37% of the Moon is Illuminated
May 3
Last Quarter
May 9
New
May 17
First Quarter
May 24
Full
May 31
Last Quarter

Hourly Weather History & Observations

Time (CDT) Temp. Windchill Dew Point Humidity Pressure Visibility Wind Dir Wind Speed Gust Speed Precip Events Conditions
12:15 AM 61.9 °F - 57.4 °F 85% 30.03 in 7.0 mi North 9.2 mph - N/A   Overcast
12:35 AM 61.2 °F - 56.8 °F 86% 30.03 in 7.0 mi North 6.9 mph - N/A   Overcast
12:55 AM 61.0 °F - 56.8 °F 86% 30.03 in 5.0 mi NNE 5.8 mph - N/A   Overcast
1:15 AM 60.8 °F - 56.5 °F 86% 30.02 in 7.0 mi North 6.9 mph - N/A   Overcast
1:35 AM 60.1 °F - 56.3 °F 87% 30.01 in 7.0 mi North 6.9 mph - N/A   Overcast
1:55 AM 59.9 °F - 55.9 °F 87% 29.99 in 7.0 mi North 5.8 mph - N/A Rain Light Rain
2:15 AM 59.9 °F - 55.9 °F 87% 29.99 in 7.0 mi NNW 4.6 mph - N/A   Overcast
2:35 AM 59.9 °F - 56.3 °F 88% 29.98 in 7.0 mi NNW 5.8 mph - N/A   Overcast
2:55 AM 59.9 °F - 55.9 °F 87% 29.97 in 5.0 mi North 4.6 mph - N/A Rain Rain
3:15 AM 59.7 °F - 56.1 °F 88% 29.96 in 5.0 mi North 5.8 mph - N/A   Overcast
3:35 AM 60.1 °F - 56.7 °F 88% 29.95 in 5.0 mi NNE 4.6 mph - N/A   Overcast
3:55 AM 60.1 °F - 57.0 °F 90% 29.95 in 5.0 mi NNE 6.9 mph - N/A   Overcast
4:15 AM 60.3 °F - 57.2 °F 90% 29.94 in 3.0 mi NNE 4.6 mph - 0.02 in Rain Light Rain
4:35 AM 60.1 °F - 57.2 °F 90% 29.94 in 3.0 mi NE 3.5 mph - 0.03 in Rain Light Rain
4:55 AM 60.4 °F - 57.4 °F 90% 29.93 in 3.0 mi Calm Calm - 0.08 in Rain Rain
5:15 AM 60.8 °F - 57.9 °F 90% 29.93 in 2.5 mi Calm Calm - 0.04 in Rain Rain
5:35 AM 61.2 °F - 58.5 °F 91% 29.93 in 2.5 mi Calm Calm - 0.13 in Rain Rain
5:55 AM 62.1 °F - 59.4 °F 91% 29.92 in 3.0 mi Calm Calm - 0.14 in Rain Light Rain
6:15 AM 63.5 °F - 60.8 °F 91% 29.92 in 10.0 mi East 5.8 mph - N/A   Overcast
6:35 AM 63.7 °F - 61.2 °F 91% 29.92 in 10.0 mi ESE 8.1 mph - N/A   Overcast
6:55 AM 63.7 °F - 61.0 °F 91% 29.92 in 10.0 mi ESE 6.9 mph - N/A   Overcast
7:15 AM 63.9 °F - 60.8 °F 90% 29.92 in 10.0 mi SE 6.9 mph - N/A   Overcast
7:35 AM 64.0 °F - 60.8 °F 89% 29.92 in 10.0 mi SE 4.6 mph - N/A   Overcast
7:55 AM 64.4 °F - 60.6 °F 88% 29.91 in 10.0 mi SE 4.6 mph - N/A   Overcast
8:15 AM 64.8 °F - 60.8 °F 87% 29.91 in 10.0 mi SE 5.8 mph - N/A   Overcast
8:35 AM 64.6 °F - 60.1 °F 85% 29.90 in 10.0 mi SE 8.1 mph - N/A   Overcast
8:55 AM 64.4 °F - 59.7 °F 85% 29.90 in 10.0 mi SE 6.9 mph - N/A   Overcast
9:15 AM 64.8 °F - 59.7 °F 84% 29.89 in 10.0 mi SE 8.1 mph - N/A   Overcast
9:35 AM 65.3 °F - 59.5 °F 82% 29.89 in 10.0 mi SE 9.2 mph - N/A   Overcast
9:55 AM 67.1 °F - 60.4 °F 79% 29.88 in 10.0 mi SE 11.5 mph - N/A   Overcast
10:15 AM 67.6 °F - 59.4 °F 75% 29.88 in 10.0 mi SSE 9.2 mph - N/A   Overcast
10:35 AM 68.0 °F - 59.0 °F 73% 29.87 in 10.0 mi SSE 11.5 mph - N/A   Overcast
10:55 AM 68.2 °F - 59.0 °F 72% 29.87 in 10.0 mi SSE 6.9 mph - N/A   Overcast
11:15 AM 68.2 °F - 59.0 °F 72% 29.86 in 10.0 mi SSE 6.9 mph - N/A   Overcast
11:35 AM 68.2 °F - 58.8 °F 72% 29.85 in 10.0 mi SSE 4.6 mph - N/A   Overcast
11:55 AM 68.5 °F - 59.0 °F 72% 29.85 in 10.0 mi SSE 6.9 mph - N/A   Overcast
12:15 PM 64.6 °F - 57.4 °F 77% 29.84 in 10.0 mi WSW 6.9 mph - N/A   Overcast
12:35 PM 62.1 °F - 56.5 °F 82% 29.85 in 10.0 mi WSW 9.2 mph - N/A Rain Light Rain
12:55 PM 58.6 °F - 54.0 °F 84% 29.84 in 10.0 mi West 6.9 mph - N/A   Drizzle
1:15 PM 57.2 °F - 53.1 °F 86% 29.84 in 5.0 mi West 8.1 mph - 0.01 in Rain Light Rain
1:35 PM 57.0 °F - 52.9 °F 86% 29.84 in 10.0 mi WSW 5.8 mph - 0.01 in   Drizzle
1:55 PM 56.5 °F - 52.7 °F 87% 29.85 in 3.0 mi WSW 4.6 mph - 0.05 in Rain Rain
2:15 PM 56.1 °F - 52.5 °F 88% 29.85 in 5.0 mi WSW 6.9 mph - N/A Rain Rain
2:35 PM 54.7 °F - 51.3 °F 88% 29.84 in 4.0 mi WSW 10.4 mph - 0.01 in Rain Rain
2:55 PM 52.3 °F - 49.1 °F 89% 29.83 in 4.0 mi West 5.8 mph - 0.07 in Rain Heavy Rain
3:15 PM 52.5 °F - 49.3 °F 89% 29.82 in 4.0 mi West 3.5 mph - 0.03 in Rain Light Rain
3:35 PM 53.1 °F - 50.0 °F 89% 29.81 in 7.0 mi West 3.5 mph - 0.05 in Rain Rain
3:55 PM 54.0 °F - 50.9 °F 89% 29.80 in 7.0 mi WSW 3.5 mph - 0.08 in Rain Rain
4:15 PM 54.5 °F - 51.4 °F 89% 29.82 in 10.0 mi SSW 10.4 mph - 0.01 in Rain Rain
4:35 PM 51.8 °F - 48.7 °F 89% 29.82 in 5.0 mi WSW 11.5 mph - 0.07 in Rain Heavy Rain
4:55 PM 50.2 °F - 47.3 °F 90% 29.83 in 5.0 mi WSW 11.5 mph 17.3 mph 0.12 in Rain Rain
5:15 PM 49.3 °F - 46.2 °F 89% 29.83 in 2.0 mi West 10.4 mph - 0.04 in   Unknown
5:35 PM 49.5 °F - 46.4 °F 89% 29.85 in 1.8 mi SW 11.5 mph - 0.14 in   Unknown
5:55 PM 48.2 °F - 45.3 °F 90% 29.85 in 1.2 mi SW 11.5 mph 18.4 mph 0.26 in   Unknown
6:15 PM 47.7 °F - 44.6 °F 89% 29.86 in 1.2 mi WSW 10.4 mph - 0.08 in   Unknown
6:35 PM 47.5 °F - 44.4 °F 89% 29.86 in 1.2 mi WSW 12.7 mph - 0.17 in   Unknown
6:55 PM 47.3 °F - 44.1 °F 88% 29.87 in 1.8 mi SW 11.5 mph - 0.24 in   Unknown
7:15 PM 47.1 °F - 44.1 °F 89% 29.87 in 4.0 mi WSW 11.5 mph - 0.02 in   Unknown
7:35 PM 47.3 °F - 43.9 °F 88% 29.89 in 4.0 mi WSW 10.4 mph - 0.07 in   Unknown
7:55 PM 46.6 °F - 43.3 °F 88% 29.88 in 3.0 mi West 8.1 mph - 0.13 in   Unknown
8:15 PM 46.0 °F 42.5 °F 42.8 °F 88% 29.87 in 5.0 mi West 6.9 mph - 0.02 in   Unknown
8:35 PM 46.8 °F - 43.7 °F 89% 29.90 in 3.0 mi WSW 11.5 mph - 0.06 in   Unknown
8:55 PM 46.0 °F 41.0 °F 42.8 °F 88% 29.90 in 4.0 mi SW 10.4 mph - 0.09 in   Unknown
9:15 PM 46.4 °F 43.5 °F 43.0 °F 88% 29.91 in 5.0 mi SW 5.8 mph - 0.01 in   Unknown
9:35 PM 45.9 °F 41.7 °F 42.8 °F 89% 29.93 in 4.0 mi SSW 8.1 mph - 0.03 in   Unknown
9:55 PM 45.9 °F 41.7 °F 42.8 °F 89% 29.93 in 7.0 mi SSW 8.1 mph - 0.05 in   Unknown
10:15 PM 45.9 °F 42.3 °F 42.6 °F 88% 29.94 in 7.0 mi SSW 6.9 mph - 0.01 in   Unknown
10:35 PM 45.7 °F 40.6 °F 42.4 °F 88% 29.93 in 7.0 mi SW 10.4 mph - 0.02 in   Unknown
10:55 PM 45.0 °F 39.7 °F 41.5 °F 88% 29.92 in 4.0 mi WSW 10.4 mph - 0.04 in   Unknown
11:15 PM 44.8 °F 41.6 °F 41.4 °F 88% 29.92 in 5.0 mi WSW 5.8 mph - 0.01 in   Unknown
11:35 PM 45.5 °F 39.9 °F 42.1 °F 88% 29.92 in 10.0 mi SW 11.5 mph - 0.02 in   Unknown
11:55 PM 45.5 °F 40.8 °F 41.9 °F 87% 29.88 in 7.0 mi WSW 9.2 mph - 0.03 in   Unknown